Zurück zum Katalog

DMSP 5D-2 F13 DEB

AktivSSO
NORAD 42318·DEBRIS·🇺🇸 United States

Gestartet Mar 24, 1995 von Vandenberg Space Force Base

Loading…

Nächste Überflüge (nächste 24 Stunden)

TLE

AktuellSource: Space-Track

Epoche: Sep 14, 2026, 01:30 UTC

1 42318U 95015JL  26257.06253502  .00002837  00000-0  20791-2 0  9994
2 42318  98.7534 297.9146 0202544 154.7027 206.4218 13.87280472556446

Verfolge DMSP 5D-2 F13 DEB in Echtzeit mit AllMySat

Download on the App Store